Location: Gniazdowice
(50.2124°N, 20.2673°E)
Time: 23:18:03
(UTC+00:00)

Meteor 1-21 - Pass Details

Date: 23 May 2024
Orbit: 844 x 886 km, 81.2° (Epoch: 22 June)

Event Time Altitude Azimuth Distance (km) Brightness Sun altitude
Exits shadow 00:04:41 25° 215° (SW) 1,655 5.1 -16.5°
Maximum altitude 00:07:55 60° 286° (WNW) 994 4.5 -16.3°
Drops below altitude 10° 00:13:37 10° 7° (N) 2,536 7.9 -15.9°
Sets 00:16:08 0° 11° (N) 3,484 9.0 -15.8°
